• In Italy
  • List of Countries
  • For 7 days
  • Water Temperature
  • Satellite Maps
  • Weather Map
  • Weather Widgets
  • user-avatar
    Login

    Hourly Weather Dhaka

    Today, 19 September, Wednesday

    Time Temperature Precipitation Wind Pressure Humidity
    00:00 +32°C° 0 mm 1 mps 751 mmHg 62%
    01:00 +32°C° 0 mm 1 mps 751 mmHg 63%
    02:00 +31°C° 0 mm 1 mps 751 mmHg 64%
    03:00 +31°C° 0 mm 1 mps 751 mmHg 65%
    04:00 +31°C° 0 mm 1 mps 751 mmHg 67%
    05:00 +31°C° 0 mm 1 mps 751 mmHg 68%
    06:00 +30°C° 0 mm 1 mps 751 mmHg 69%
    07:00 +32°C° 0 mm 2 mps 751 mmHg 65%
    08:00 +34°C° 0 mm 2 mps 752 mmHg 60%
    09:00 +36°C° 0 mm 2 mps 752 mmHg 56%
    10:00 +37°C° 0 mm 2 mps 751 mmHg 52%
    11:00 +38°C° 0 mm 2 mps 751 mmHg 49%
    12:00 +39°C° 0 mm 2 mps 751 mmHg 45%
    13:00 +39°C° 0 mm 2 mps 750 mmHg 44%
    14:00 +40°C° 0 mm 2 mps 749 mmHg 43%
    15:00 +40°C° 0 mm 1 mps 748 mmHg 42%
    16:00 +39°C° 0 mm 1 mps 748 mmHg 46%
    17:00 +37°C° 0 mm 1 mps 748 mmHg 49%
    18:00 +36°C° 0 mm 1 mps 748 mmHg 53%
    19:00 +35°C° 0.3 mm 1 mps 749 mmHg 55%
    20:00 +34°C° 0.3 mm 1 mps 749 mmHg 58%
    21:00 +35°C° 0.3 mm 2 mps 750 mmHg 61%
    22:00 +34°C° 3.1 mm 3 mps 750 mmHg 67%
    23:00 +32°C° 3.1 mm 4 mps 751 mmHg 74%

    Tomorrow, 20 September, Thursday

    Time Temperature Precipitation Wind Pressure Humidity
    00:00 +30°C° 3.1 mm 4 mps 751 mmHg 80%
    01:00 +30°C° 0.8 mm 5 mps 751 mmHg 82%
    02:00 +29°C° 0.8 mm 5 mps 751 mmHg 85%
    03:00 +29°C° 0.8 mm 5 mps 751 mmHg 87%
    04:00 +29°C° 0.6 mm 5 mps 751 mmHg 88%
    05:00 +29°C° 0.6 mm 4 mps 752 mmHg 89%
    06:00 +28°C° 0.6 mm 4 mps 752 mmHg 90%
    07:00 +29°C° 0.5 mm 4 mps 753 mmHg 87%
    08:00 +29°C° 0.5 mm 5 mps 753 mmHg 85%
    09:00 +30°C° 0.5 mm 6 mps 754 mmHg 83%
    10:00 +30°C° 0.4 mm 5 mps 754 mmHg 79%
    11:00 +32°C° 0.4 mm 5 mps 754 mmHg 75%
    12:00 +33°C° 0.4 mm 5 mps 753 mmHg 71%
    13:00 +33°C° 0 mm 5 mps 753 mmHg 69%
    14:00 +34°C° 0 mm 5 mps 752 mmHg 66%
    15:00 +35°C° 0 mm 4 mps 752 mmHg 63%
    16:00 +34°C° 0 mm 4 mps 752 mmHg 66%
    17:00 +33°C° 0 mm 3 mps 752 mmHg 69%
    18:00 +31°C° 0 mm 2 mps 752 mmHg 73%
    19:00 +31°C° 0.2 mm 2 mps 753 mmHg 75%
    20:00 +30°C° 0.2 mm 2 mps 753 mmHg 77%
    21:00 +30°C° 0.2 mm 2 mps 754 mmHg 79%
    22:00 +30°C° 0.3 mm 2 mps 754 mmHg 80%
    23:00 +30°C° 0.3 mm 2 mps 754 mmHg 81%

    Day after tomorrow, 21 September, Friday

    Time Temperature Precipitation Wind Pressure Humidity
    00:00 +29°C° 0.3 mm 2 mps 754 mmHg 82%
    01:00 +29°C° 0.3 mm 2 mps 754 mmHg 82%
    02:00 +29°C° 0.3 mm 2 mps 753 mmHg 83%
    03:00 +29°C° 0.3 mm 2 mps 753 mmHg 83%
    04:00 +29°C° 0 mm 2 mps 753 mmHg 84%
    05:00 +28°C° 0 mm 2 mps 753 mmHg 84%
    06:00 +28°C° 0 mm 2 mps 754 mmHg 85%
    07:00 +30°C° 0 mm 2 mps 754 mmHg 79%
    08:00 +31°C° 0 mm 3 mps 755 mmHg 72%
    09:00 +34°C° 0 mm 3 mps 755 mmHg 66%
    10:00 +35°C° 0 mm 3 mps 755 mmHg 62%
    11:00 +36°C° 0 mm 4 mps 755 mmHg 57%
    12:00 +37°C° 0 mm 4 mps 754 mmHg 53%
    13:00 +37°C° 0 mm 4 mps 754 mmHg 53%
    14:00 +37°C° 0 mm 5 mps 753 mmHg 53%
    15:00 +37°C° 0 mm 5 mps 752 mmHg 53%
    16:00 +36°C° 0 mm 5 mps 753 mmHg 58%
    17:00 +34°C° 0 mm 4 mps 753 mmHg 63%
    18:00 +33°C° 0 mm 4 mps 753 mmHg 68%
    19:00 +32°C° 0 mm 4 mps 754 mmHg 71%
    20:00 +31°C° 0 mm 3 mps 755 mmHg 73%
    21:00 +30°C° 0 mm 3 mps 756 mmHg 76%
    22:00 +30°C° 0 mm 3 mps 756 mmHg 78%
    23:00 +30°C° 0 mm 3 mps 756 mmHg 80%

    22 September, Saturday

    Time Temperature Precipitation Wind Pressure Humidity
    00:00 +30°C° 0 mm 3 mps 756 mmHg 81%
    01:00 +30°C° 0 mm 3 mps 755 mmHg 82%
    02:00 +29°C° 0 mm 3 mps 755 mmHg 84%
    03:00 +29°C° 0 mm 2 mps 755 mmHg 85%
    04:00 +29°C° 0.3 mm 2 mps 755 mmHg 86%
    05:00 +29°C° 0.3 mm 2 mps 755 mmHg 88%
    06:00 +28°C° 0.3 mm 2 mps 756 mmHg 89%
    07:00 +30°C° 0.4 mm 3 mps 756 mmHg 83%
    08:00 +31°C° 0.4 mm 3 mps 756 mmHg 77%
    09:00 +33°C° 0.4 mm 4 mps 757 mmHg 71%
    10:00 +34°C° 0.6 mm 3 mps 757 mmHg 66%
    11:00 +36°C° 0.6 mm 3 mps 756 mmHg 60%
    12:00 +37°C° 0.6 mm 3 mps 756 mmHg 55%
    13:00 +37°C° 0.1 mm 4 mps 755 mmHg 55%
    14:00 +37°C° 0.1 mm 4 mps 754 mmHg 55%
    15:00 +37°C° 0.1 mm 4 mps 753 mmHg 55%
    16:00 +36°C° 0 mm 4 mps 753 mmHg 60%
    17:00 +34°C° 0 mm 3 mps 754 mmHg 64%
    18:00 +33°C° 0 mm 3 mps 754 mmHg 68%
    19:00 +33°C° 0 mm 3 mps 755 mmHg 70%
    20:00 +31°C° 0 mm 3 mps 755 mmHg 73%
    21:00 +30°C° 0 mm 3 mps 756 mmHg 75%
    22:00 +30°C° 0 mm 3 mps 756 mmHg 77%
    23:00 +30°C° 0 mm 3 mps 756 mmHg 79%

    23 September, Sunday

    Time Temperature Precipitation Wind Pressure Humidity
    00:00 +29°C° 0 mm 2 mps 756 mmHg 81%
    01:00 +29°C° 0 mm 2 mps 756 mmHg 82%
    02:00 +29°C° 0 mm 2 mps 755 mmHg 83%
    03:00 +29°C° 0 mm 2 mps 755 mmHg 84%
    04:00 +29°C° 0.1 mm 2 mps 756 mmHg 84%
    05:00 +29°C° 0.1 mm 2 mps 756 mmHg 85%
    06:00 +29°C° 0.1 mm 2 mps 756 mmHg 86%
    07:00 +30°C° 0.8 mm 2 mps 757 mmHg 81%
    08:00 +31°C° 0.8 mm 2 mps 757 mmHg 77%
    09:00 +32°C° 0.8 mm 2 mps 757 mmHg 72%
    10:00 +34°C° 1.1 mm 2 mps 757 mmHg 68%
    11:00 +35°C° 1.1 mm 2 mps 756 mmHg 64%
    12:00 +35°C° 1.1 mm 2 mps 756 mmHg 60%
    13:00 +35°C° 0.8 mm 2 mps 755 mmHg 60%
    14:00 +36°C° 0.8 mm 2 mps 754 mmHg 59%
    15:00 +36°C° 0.8 mm 2 mps 753 mmHg 59%
    16:00 +35°C° 1.7 mm 2 mps 754 mmHg 64%
    17:00 +32°C° 1.7 mm 2 mps 754 mmHg 70%
    18:00 +31°C° 1.7 mm 2 mps 754 mmHg 76%
    19:00 +31°C° 0.3 mm 2 mps 754 mmHg 78%
    20:00 +31°C° 0.3 mm 2 mps 755 mmHg 80%
    21:00 +30°C° 0.3 mm 3 mps 755 mmHg 82%
    22:00 +30°C° 0.4 mm 3 mps 755 mmHg 83%
    23:00 +30°C° 0.4 mm 3 mps 755 mmHg 85%

    24 September, Monday

    Time Temperature Precipitation Wind Pressure Humidity
    00:00 +29°C° 0.4 mm 3 mps 755 mmHg 86%
    01:00 +29°C° 0.6 mm 3 mps 755 mmHg 86%
    02:00 +29°C° 0.6 mm 3 mps 755 mmHg 87%
    03:00 +29°C° 0.6 mm 3 mps 755 mmHg 88%
    04:00 +29°C° 1.4 mm 3 mps 755 mmHg 88%
    05:00 +29°C° 1.4 mm 2 mps 755 mmHg 89%
    06:00 +28°C° 1.4 mm 2 mps 755 mmHg 89%
    07:00 +29°C° 0.5 mm 2 mps 756 mmHg 84%
    08:00 +30°C° 0.5 mm 2 mps 756 mmHg 80%
    09:00 +31°C° 0.5 mm 2 mps 757 mmHg 75%
    10:00 +32°C° 0.4 mm 2 mps 756 mmHg 71%
    11:00 +34°C° 0.4 mm 3 mps 756 mmHg 66%
    12:00 +35°C° 0.4 mm 3 mps 755 mmHg 61%
    13:00 +36°C° 0.4 mm 2 mps 754 mmHg 60%
    14:00 +36°C° 0.4 mm 2 mps 754 mmHg 58%
    15:00 +36°C° 0.4 mm 2 mps 753 mmHg 57%
    16:00 +35°C° 0.3 mm 2 mps 753 mmHg 62%
    17:00 +34°C° 0.3 mm 2 mps 753 mmHg 67%
    18:00 +33°C° 0.3 mm 3 mps 753 mmHg 72%
    19:00 +31°C° 0.1 mm 3 mps 754 mmHg 75%
    20:00 +31°C° 0.1 mm 3 mps 754 mmHg 78%
    21:00 +30°C° 0.1 mm 3 mps 755 mmHg 81%
    22:00 +30°C° 0.4 mm 3 mps 755 mmHg 83%
    23:00 +29°C° 0.4 mm 3 mps 755 mmHg 84%
    Show more